Погода в Петролине

Бразилия     9°23′46″S   40°31′10″W
темп.,
°C
ветер,
м/с
пор.,
м/с
влажн.,
%
обл.,
%
осадки,
мм/ч
давл.,
гПа
погр.,
м
4 июля, пн
пн400:00+20юв7147975 0.0 1020652
03:00+19юв71389100 0.0 1018543
06:00+20юв91377100 0.0 1018805
09:00+23юв10125513 0.0 10191100
12:00+28юв10114262 0.0 10171782
15:00+30вюв893434 0.0 10142268
18:00+28юв8123488 0.0 1015718
21:00+24юв9144951 0.0 1018577
5 июля, вт
вт500:00+21юв815698 0.0 1018586
03:00+19юв8148670 0.0 1017540
06:00+20юв9137498 0.0 1017904
09:00+23юв9126499 0.0 10191190
12:00+25юв8105069 0.0 10181561
15:00+28вюв894366 0.0 10141882
18:00+25вюв81048100 0.0 1015674
21:00+24вюв81158100 0.0 1017699
6 июля, ср
ср600:00+22вюв8116799 0.0 1017937
03:00+20юв7127631 0.0 1017523
06:00+18юв713870 0.0 1018410
09:00+23юв9116110 0.0 10191024
12:00+27вюв9104875 0.0 10171647
15:00+29вюв9104257 0.0 10142024
18:00+26юв7105295 0.0 1015767
21:00+25юв61150100 0.0 1017840
7 июля, чт
чт700:00+23вюв811597 0.0 1017980
03:00+20юв814790 0.0 1016527
06:00+19юв814854 0.0 1017511
09:00+24юв10136456 0.0 1019935
12:00+27юв9115296 0.1 10171711
15:00+27юв8950100 0.1 10151608
18:00+26юв81159100 0.1 1017831
21:00+24юв9137098 0.1 1019940
8 июля, пт
пт800:00+22юв81374100 0.0 1019908
03:00+21юв81376100 0.0 1018814
06:00+21юв81376100 0.0 1019770
09:00+24юв9115914 0.0 10211046
12:00+30юв1093953 0.0 10182017
15:00+29юв9943100 0.0 10162059
18:00+26юв8104894 0.0 10171226
21:00+25юв8115160 0.0 1019654